Find Kosmos-1794

NORAD ID: 17138 Int'l Des: 1986-092 Owner: UNKS Country: SU operational
LEOCIRCULAR

Live-Position

3D-Globus wird geladen...

Über Kosmos-1794

Beschreibung wird geladen...

Nächste Überflüge

Passes for default location (London). Set your location on the main map for personalized predictions.

Höhenverlauf

Loading altitude history...

Zweizeiliger Elementsatz

1 17138U 86092A 26119.95153214 .00000008 00000-0 16405-3 0 9991
2 17138 74.0134 175.3243 0020931 18.9122 155.1466 12.45669628793291
Epoch: 29. Apr. 2026 • Age: 5 hours

Aktueller Status

Höhe 1494.7 km
Geschwindigkeit 7.12 km/s
Subsatellitenpunkt 58.82°N, 44.09°E
Startdatum 21. Nov. 1986
Alter 39.4 years
Typ other

Technische Details

Klassifizierung Payload
Masse 60.00 kg
Trockenmasse 60.00 kg
Gesamtmasse 60.00 kg
Länge 0.80 m
Durchmesser 0.80 m
Spannweite 0.80 m
Form Poly
Hersteller NPOPM
Bus-Typ Strela-1 11F625
Phasenstatus In Orbit
Besitzer/Staat UNKS/SU

Most Searched